Theta_e
337 339 340 341 341 344 344 346 347 350 352 351 350 352 353 352 354 354 356 358 358 357 356 354 353 354 355 350 351 355 355 354 352 354 356 356 360 363 369 365 370 370 370 368 370 372 372 372 370 367 369 370 370 365 367 365 370 370 374 376 365 362 357 355 354 357 365 360 376 351 360 357 355 367 357 350 345 351 351 350 357 352 350 354 354
337 338 340 340 341 343 344 345 350 349 352 352 351 354 355 353 354 354 357 358 358 357 359 357 358 355 351 349 350 352 353 356 352 355 356 356 367 369 368 367 370 370 372 372 371 371 374 369 370 375 373 371 369 368 366 365 366 367 371 372 372 362 358 352 351 362 360 350 349 349 355 359 360 349 346 344 345 347 344 351 364 347 342 343 350
336 337 339 339 341 342 343 344 347 350 350 351 354 354 354 355 359 359 358 359 361 361 364 363 362 361 362 352 351 351 354 356 355 355 358 358 361 366 369 370 370 368 370 372 370 367 371 372 370 371 371 370 375 375 375 370 370 366 367 369 366 365 361 357 367 365 354 356 359 351 344 345 365 357 347 343 345 339 345 341 350 345 344 345 348
334 336 337 338 341 341 343 344 347 349 349 352 351 353 353 360 361 362 361 361 362 364 365 361 362 364 365 361 362 354 356 361 361 361 360 358 358 363 369 371 368 364 364 363 369 371 371 371 370 371 380 374 378 375 373 371 374 369 364 367 368 355 353 356 362 363 360 352 352 350 349 344 346 351 356 351 342 342 341 335 338 341 345 358 362
335 336 338 338 340 340 343 345 347 347 348 352 351 352 354 356 360 362 363 362 362 363 365 364 366 364 363 361 363 363 361 362 358 355 357 359 358 362 362 368 368 364 364 365 367 371 372 371 372 368 368 372 375 374 372 364 370 366 369 369 365 362 356 351 361 359 365 368 366 361 348 345 345 341 339 357 343 339 341 335 340 342 349 365 361
337 336 338 339 341 341 344 345 345 347 347 352 352 352 354 356 360 362 367 364 361 363 368 367 364 365 362 360 357 356 358 355 354 353 352 352 352 357 361 362 364 364 367 367 366 368 370 373 370 369 367 370 370 365 366 367 369 366 370 364 363 367 365 358 356 360 351 367 364 361 356 350 349 349 344 344 358 345 342 340 347 344 348 352 361
338 338 338 339 341 341 344 343 345 344 347 350 352 354 354 356 359 360 363 363 363 366 367 366 364 364 359 356 355 355 355 356 361 357 358 355 357 358 362 361 368 361 361 366 364 370 371 371 373 371 368 373 370 369 371 359 359 360 366 370 369 369 371 359 357 352 358 366 347 346 351 353 348 354 351 356 346 356 351 342 348 346 340 343 348
336 337 338 341 342 342 343 344 345 344 347 348 350 352 356 359 358 361 365 364 363 364 365 368 367 363 361 358 355 356 351 356 358 360 359 365 361 358 359 361 366 368 363 370 368 367 370 370 375 371 374 366 373 374 367 363 368 364 368 371 374 379 371 370 363 357 361 356 359 352 355 357 360 357 355 356 357 346 347 352 343 343 341 340 348
337 337 337 340 342 344 345 344 346 346 346 347 352 354 356 356 359 361 362 364 365 366 366 366 366 365 365 359 359 361 357 359 361 361 364 364 360 361 364 361 367 370 368 365 368 367 370 370 371 371 367 365 374 371 365 360 360 366 374 371 366 370 380 371 369 369 355 352 358 361 359 358 356 356 355 361 360 352 351 339 345 346 344 343 343
339 338 339 341 343 344 345 345 345 346 347 349 353 355 356 357 357 359 361 362 362 365 366 365 364 367 364 362 360 361 363 360 361 363 365 368 361 363 365 367 361 365 366 369 370 368 368 370 366 363 363 364 364 366 362 363 368 369 371 371 370 370 376 371 370 376 361 363 364 368 368 366 359 354 349 351 348 360 348 350 346 340 344 358 348
338 339 339 341 342 343 344 344 344 346 348 349 350 355 355 355 356 357 360 361 362 364 365 363 364 363 364 363 360 359 360 360 361 360 364 366 363 359 364 365 365 364 362 365 366 365 366 368 362 361 362 367 370 369 366 359 358 362 366 372 370 368 371 372 369 367 376 374 358 371 367 356 361 354 351 353 352 351 353 338 337 347 347 347 360
337 337 338 340 342 343 343 343 343 345 347 347 350 352 355 356 355 358 361 363 363 361 363 363 361 364 366 364 363 364 361 358 361 360 361 360 362 362 368 368 365 364 368 362 362 361 366 367 368 365 371 375 367 367 368 365 362 366 369 376 375 375 375 374 368 362 358 365 355 357 354 350 349 351 348 361 351 360 344 343 344 354 346 351 348
337 338 340 339 339 340 340 343 347 348 348 348 350 350 353 354 357 357 359 363 364 361 362 365 363 366 365 366 365 367 365 365 364 364 363 361 364 361 362 365 367 365 364 358 359 360 366 368 368 370 368 369 374 370 368 370 372 369 371 365 369 370 367 376 369 360 358 359 354 356 351 352 354 356 347 345 350 353 352 351 347 343 348 348 351
337 337 339 339 341 339 342 343 344 345 346 346 351 352 354 354 358 357 360 362 364 362 363 361 361 366 367 366 367 368 368 363 363 360 360 363 366 365 361 359 366 361 358 363 359 359 362 365 368 368 373 372 372 373 372 374 373 372 367 370 363 369 376 371 370 361 364 360 356 363 353 350 353 349 349 349 346 346 356 349 354 352 343 341 352
342 337 337 338 340 341 340 342 343 346 345 345 349 355 356 355 358 360 359 360 362 363 362 362 363 365 366 368 368 369 366 364 363 364 363 361 359 358 362 361 361 363 366 367 368 366 364 367 366 368 371 373 373 373 366 371 374 374 373 371 372 368 370 371 366 360 352 356 362 361 355 350 354 356 349 348 350 349 352 354 364 351 346 346 347
339 339 339 340 341 342 340 342 343 345 350 346 348 353 354 356 358 360 359 359 360 362 361 362 364 363 366 367 365 365 369 364 372 369 369 366 363 363 367 370 366 366 370 368 364 366 367 367 367 366 371 367 371 372 372 368 373 373 379 373 369 365 370 368 368 363 358 359 356 368 362 347 357 352 354 355 362 359 362 360 369 359 358 348 349
337 339 338 341 339 341 341 343 342 344 345 347 351 352 355 357 356 359 360 359 359 362 360 362 364 364 365 364 362 362 361 360 359 362 358 363 367 364 363 361 363 368 364 363 367 369 371 369 366 364 370 370 370 371 368 372 374 370 368 373 370 367 374 371 370 366 366 355 355 362 363 367 364 370 360 354 363 375 365 367 361 362 357 355 349
339 342 343 342 343 343 343 343 343 345 345 347 353 351 356 354 356 357 358 359 358 358 357 359 362 361 363 364 365 364 359 357 361 359 360 362 366 367 361 365 362 361 361 360 363 364 370 369 368 370 367 367 367 364 368 371 375 372 370 375 369 375 370 372 373 368 364 366 361 357 362 365 374 363 356 354 366 368 369 369 367 374 365 360 358
337 337 338 338 340 341 344 345 348 350 349 350 349 349 352 355 356 356 356 356 357 356 356 358 359 357 358 359 361 362 362 358 360 362 362 359 358 360 359 361 361 363 365 370 366 362 367 366 372 365 368 368 369 366 370 372 372 371 368 370 370 374 372 370 373 371 363 363 366 361 364 367 365 361 362 353 365 368 371 365 369 367 372 368 365
335 337 337 339 339 339 342 343 347 348 346 346 347 349 350 353 354 354 356 356 356 354 357 356 356 355 355 358 362 366 366 363 360 362 356 357 358 356 360 358 358 359 361 362 362 362 366 361 364 363 361 361 364 363 362 369 372 368 366 363 366 371 368 368 366 364 360 370 368 368 370 370 368 372 367 363 363 366 370 372 370 371 369 373 375
335 336 336 337 339 339 340 346 348 349 348 346 346 349 348 350 350 351 353 352 352 350 354 357 356 357 358 357 356 359 360 360 358 358 359 359 359 360 358 358 363 360 359 361 360 364 366 362 359 363 358 363 367 365 366 370 370 370 370 373 372 371 372 368 371 367 360 365 371 366 370 370 371 364 366 361 359 362 362 364 365 365 364 370 366
336 336 336 336 339 339 343 346 347 346 347 345 346 347 348 351 352 353 353 354 354 350 354 357 359 355 353 354 355 355 357 360 357 357 359 357 356 359 361 360 358 360 361 357 360 359 362 361 358 359 365 361 366 370 362 364 366 368 366 362 363 371 372 369 369 371 370 361 368 369 367 364 369 366 361 356 357 352 355 358 361 361 360 355 369
336 336 337 337 338 340 342 344 346 348 349 350 353 351 351 356 353 354 353 356 357 355 352 357 357 357 356 354 355 355 355 356 356 357 356 355 357 356 360 359 357 356 361 360 357 357 364 364 362 367 367 367 373 365 365 368 369 368 366 361 359 366 365 363 363 366 362 366 363 367 361 363 357 363 363 359 360 358 357 357 358 361 357 365 367
351 339 338 340 338 340 341 344 347 350 350 350 355 360 357 358 355 356 353 357 355 352 356 359 356 355 353 353 354 354 352 352 352 354 354 356 356 356 359 356 356 356 357 361 358 358 362 368 363 366 368 366 367 365 363 364 366 367 366 368 369 369 366 363 364 362 360 363 361 364 359 360 365 368 364 367 359 357 359 367 366 366 371 362 364
346 345 347 341 337 338 343 344 350 351 349 357 354 365 357 359 357 356 355 353 350 351 351 354 354 355 355 354 351 351 351 350 350 351 354 354 353 355 358 357 356 357 358 357 363 361 364 364 357 361 364 365 366 364 365 360 361 365 366 363 366 367 364 365 363 365 361 368 365 362 360 366 368 363 364 360 359 357 364 365 359 364 368 364 365
346 348 345 342 350 354 350 352 353 352 352 359 356 360 361 364 359 358 359 353 355 357 361 359 358 355 359 360 358 351 350 350 349 348 349 351 353 354 354 356 356 356 358 357 358 357 360 363 362 362 367 367 367 367 368 366 360 361 363 362 364 365 362 363 362 359 360 360 358 361 360 359 358 357 355 358 366 366 359 351 354 354 362 366 361
347 349 346 349 345 347 352 350 348 355 349 353 353 355 358 361 361 358 362 358 362 359 363 361 357 356 359 360 357 349 349 348 349 348 347 348 349 349 355 354 355 355 354 355 355 359 362 363 363 361 360 366 367 364 371 369 367 367 364 364 359 361 361 360 358 356 354 355 355 354 358 358 359 360 356 357 359 360 350 358 367 367 360 355 352
353 353 349 349 346 348 350 353 352 353 354 355 354 354 359 359 360 363 362 360 361 360 362 363 359 359 360 358 355 357 358 356 353 357 355 347 346 347 350 355 357 355 353 351 355 355 355 362 362 359 361 366 369 366 368 371 370 365 361 363 363 359 356 356 356 359 353 350 350 349 347 351 354 358 357 358 363 357 364 360 363 363 366 365 361
345 346 349 354 351 353 353 351 349 351 356 357 351 356 361 363 360 364 364 365 366 363 362 364 361 360 362 361 362 363 365 366 364 363 355 355 356 352 354 355 355 353 351 353 352 354 356 356 360 364 362 359 361 363 362 365 365 366 365 357 359 359 357 358 358 352 353 354 350 347 345 344 360 367 364 365 363 369 362 365 367 368 366 364 364
342 343 346 352 353 355 356 353 349 352 352 350 354 355 357 356 355 363 367 368 369 367 364 364 363 362 365 364 365 366 365 368 368 361 367 363 356 361 351 350 352 351 356 360 357 356 350 353 355 358 357 355 354 355 364 367 366 362 360 358 356 369 369 361 362 361 351 349 347 347 346 357 353 355 361 371 366 362 368 356 366 366 367 363 362
342 342 343 341 346 351 352 351 351 351 348 346 346 355 355 359 360 362 365 368 368 369 368 367 366 366 368 366 366 366 367 366 365 370 368 366 368 370 366 368 361 359 358 370 368 354 348 347 347 349 351 351 352 348 357 348 349 359 360 362 361 364 367 367 363 362 361 355 352 353 351 354 364 372 372 368 367 361 366 366 364 365 366 362 357
341 342 344 344 347 348 350 350 351 352 351 349 347 346 351 358 359 360 365 365 364 364 363 364 362 363 363 364 368 368 367 368 368 369 370 370 370 370 370 369 362 353 366 356 352 354 358 351 347 347 345 351 347 336 332 336 342 345 358 366 356 356 355 358 357 354 355 353 354 350 349 347 349 366 367 366 367 367 364 365 363 361 360 360 359
343 343 343 344 346 348 349 349 350 352 354 358 355 352 354 355 357 360 362 362 359 354 353 355 357 354 354 359 362 366 368 368 368 368 369 369 369 368 368 367 363 362 357 363 363 356 356 358 352 356 351 348 344 330 330 333 334 334 338 361 355 356 351 349 351 354 355 357 356 355 350 348 347 360 361 358 370 367 364 358 359 360 360 356 344
339 339 341 345 346 347 348 350 351 353 353 354 355 354 354 356 359 360 356 355 355 355 356 356 354 357 357 358 356 360 363 363 366 367 367 368 368 367 367 367 365 367 366 363 358 364 362 358 356 354 352 346 341 328 326 328 330 331 336 347 356 355 355 353 355 351 348 351 354 360 359 357 360 360 357 357 358 365 371 367 365 364 361 363 360
339 338 341 343 344 344 344 344 345 347 349 350 350 352 352 351 352 353 354 353 352 351 351 350 352 352 354 358 357 353 351 358 360 360 361 361 360 361 362 364 362 356 353 354 362 361 360 357 355 352 348 341 331 321 323 324 325 328 332 353 357 356 356 355 355 355 362 359 362 360 361 359 362 356 350 351 354 357 365 365 370 365 363 365 364
339 338 339 342 341 340 339 340 342 344 345 346 346 349 348 348 352 351 349 348 349 348 346 348 349 351 352 353 355 354 352 351 354 358 358 357 359 359 357 353 353 353 351 356 357 357 356 356 356 353 349 338 331 319 319 320 320 323 333 355 358 362 361 358 357 359 361 363 364 362 362 360 358 349 340 331 340 355 360 361 361 360 359 358 358
337 337 337 338 338 338 339 339 339 341 341 343 345 346 345 345 346 346 347 347 347 346 347 350 352 352 353 354 354 353 353 354 356 354 355 355 354 354 352 353 351 352 354 353 351 353 352 354 354 351 346 339 333 322 317 316 317 318 339 355 360 359 359 358 357 360 360 363 363 362 361 360 355 346 332 323 330 351 359 358 359 357 356 357 358
335 336 336 336 337 338 338 338 337 336 338 340 341 341 341 340 341 343 343 344 345 343 345 347 348 350 352 352 352 351 349 346 349 351 352 354 353 353 351 352 348 349 348 348 349 348 348 349 350 348 342 337 333 324 315 314 315 316 334 350 356 359 357 358 356 360 361 361 360 362 357 352 349 343 324 322 325 348 355 355 355 354 354 354 356
334 334 333 334 335 335 335 335 334 332 333 335 336 335 335 335 337 337 338 338 338 340 342 344 347 349 350 352 351 351 349 348 348 347 350 349 349 349 351 351 349 348 348 348 348 347 347 347 347 345 344 340 338 332 316 314 314 314 328 342 351 356 356 356 357 354 358 359 357 355 352 344 342 332 318 320 323 341 349 351 352 351 350 352 354
333 334 335 335 335 334 332 331 330 330 331 332 333 333 333 332 333 334 333 333 334 336 339 341 343 347 349 350 352 349 350 348 347 347 349 349 349 349 348 346 347 348 347 349 348 345 343 344 345 343 342 342 339 336 326 313 312 314 317 336 349 353 352 353 354 356 354 355 356 349 341 325 321 319 316 314 316 320 341 347 349 349 349 350 350
331 332 336 333 332 331 329 330 331 330 329 329 330 330 330 331 332 332 332 334 337 339 339 339 340 341 341 342 345 345 347 347 346 347 347 350 350 350 349 349 348 348 348 347 344 341 340 341 344 342 341 341 339 337 331 313 312 313 315 326 345 343 342 348 353 354 351 353 353 351 343 327 318 316 313 311 310 315 324 340 348 349 349 345 336
329 331 329 327 327 326 326 327 330 329 329 329 330 330 329 328 328 328 328 330 335 336 337 338 340 340 340 341 341 342 344 347 349 350 346 343 349 349 348 349 346 345 345 344 341 341 338 338 337 335 337 338 339 341 339 322 314 312 313 319 336 337 334 341 351 351 351 351 353 346 342 329 315 315 312 308 308 312 319 336 349 325 318 319 338
325 324 323 322 323 324 321 323 326 330 331 329 329 328 327 328 327 326 327 330 335 336 336 337 338 339 341 341 341 342 343 344 343 344 343 344 343 342 343 345 342 343 343 341 343 341 338 337 337 337 339 339 340 338 335 334 319 313 313 316 318 329 324 342 340 347 346 344 344 342 341 330 310 307 305 308 310 312 322 336 321 313 315 318 330
323 321 321 323 323 324 324 328 329 329 328 326 329 331 332 329 329 331 329 329 331 332 332 334 335 335 338 339 341 342 343 343 344 342 341 337 340 344 345 347 347 344 339 340 344 342 339 336 335 337 340 340 337 335 335 335 329 318 315 315 317 318 320 331 342 339 337 334 337 335 334 309 306 304 304 309 312 319 328 315 311 317 320 330 338
318 318 323 324 323 322 322 325 327 328 330 331 330 330 329 328 330 333 332 331 330 330 332 332 333 334 334 334 339 342 342 342 342 343 342 340 339 338 336 336 340 336 339 339 344 339 338 341 342 339 337 338 337 334 333 334 331 327 319 317 320 322 323 322 336 334 336 337 325 310 307 308 308 307 308 312 317 322 317 315 315 317 335 339 341
323 325 326 327 326 325 324 324 323 324 327 331 333 329 327 327 330 331 331 331 330 330 329 328 330 332 332 332 331 331 334 338 337 339 339 340 335 338 339 345 341 336 336 338 338 339 341 339 343 339 339 338 336 336 335 337 338 336 333 321 318 321 337 338 340 329 327 322 318 316 313 312 317 321 333 340 342 345 333 329 327 331 337 339 344
326 328 328 325 323 322 323 324 324 326 326 325 325 325 327 329 330 326 327 331 332 332 330 329 330 328 330 333 334 336 329 331 332 331 332 336 339 337 336 342 337 333 336 336 334 335 332 335 338 339 336 338 337 333 330 328 329 328 328 332 336 330 331 330 328 325 325 324 328 333 332 326 325 325 326 327 328 330 334 337 339 342 339 332 336
328 328 327 325 325 325 326 326 326 327 326 325 325 327 330 331 327 326 327 329 328 327 326 323 323 326 328 329 330 333 336 328 329 327 326 327 329 329 328 325 326 326 326 326 326 328 327 328 329 335 337 331 325 323 321 321 321 322 324 325 323 323 323 325 321 318 318 323 328 334 331 338 337 336 336 336 334 335 337 337 337 335 336 333 337
327 328 329 328 325 324 324 323 323 325 326 328 327 326 327 329 328 329 332 330 328 326 325 324 325 327 329 333 330 332 328 331 327 324 320 320 323 327 325 322 322 323 324 322 322 321 323 327 325 325 327 324 323 320 318 307 310 306 313 320 319 318 317 320 317 305 314 324 330 334 337 335 333 332 328 325 328 336 342 335 326 329 326 331 333
327 328 328 327 327 326 325 325 325 326 327 326 326 328 330 329 330 330 330 328 327 331 328 328 329 331 329 329 332 327 336 334 329 324 324 320 313 304 316 325 320 311 304 307 312 320 320 328 321 317 319 324 319 319 304 298 295 295 296 297 298 296 297 303 303 304 316 323 329 332 332 330 329 328 323 324 323 324 324 325 326 324 328 325 325
326 325 326 325 324 324 324 324 325 327 326 326 328 328 330 329 331 331 331 329 328 331 330 328 331 330 330 330 332 331 333 334 334 331 330 326 322 319 300 300 310 309 300 295 295 297 302 310 327 319 311 304 304 300 296 295 295 295 294 294 295 295 295 296 298 311 319 323 327 327 329 330 331 327 324 323 325 324 324 323 323 323 325 325 324
Wind_Speed
13 13 13 13 13 12 12 11 12 10 8 14 11 13 12 10 9 8 7 8 7 6 5 5 5 5 5 6 6 5 4 7 5 4 5 6 6 6 5 5 3 4 5 5 4 0 2 3 2 2 3 5 3 1 1 2 3 2 1 0 3 4 6 3 3 3 1 1 1 3 2 2 2 1 3 3 6 3 4 5 2 4 4 2 4
14 13 13 14 12 14 12 10 14 13 8 11 11 11 10 12 10 9 7 7 7 6 5 5 4 4 6 5 5 6 5 5 6 4 4 7 5 5 4 4 4 3 3 3 2 4 0 3 2 3 3 3 3 4 1 3 2 2 1 2 2 6 3 3 4 2 3 2 2 2 2 1 2 4 5 5 4 4 5 4 2 3 6 4 3
13 14 13 13 15 15 12 11 13 14 13 13 11 11 11 10 8 7 7 7 6 6 5 4 4 4 2 4 5 4 5 5 4 6 5 7 7 5 4 4 4 3 2 2 3 4 3 3 3 2 3 3 1 1 1 2 3 1 2 1 4 5 4 1 2 1 3 2 2 3 2 1 1 2 4 4 3 4 4 4 2 7 8 6 6
14 14 14 14 14 12 12 12 13 12 11 13 13 12 10 8 7 7 7 5 6 5 4 5 4 2 3 2 2 3 5 5 5 4 5 7 7 5 3 4 4 4 4 4 3 3 3 2 1 3 1 2 1 1 1 1 2 2 1 1 2 3 4 2 2 3 3 5 2 0 1 2 1 3 1 3 6 2 3 5 4 5 7 4 2
14 15 14 14 14 13 12 12 13 13 13 12 13 12 9 12 9 7 6 7 6 6 5 7 6 4 2 2 3 4 5 3 4 4 4 5 6 5 6 5 4 3 4 3 3 3 3 3 1 2 2 2 1 1 1 2 2 2 1 2 3 2 6 2 1 3 2 3 1 1 2 3 1 4 3 3 4 6 1 7 4 5 4 2 1
14 15 14 14 14 13 12 13 13 12 13 13 12 12 12 11 10 7 5 6 7 6 6 5 6 5 5 5 4 4 4 6 5 5 5 7 7 7 7 6 5 4 3 3 4 3 3 3 2 2 3 2 2 2 3 3 2 0 2 0 2 2 2 6 1 2 4 2 4 3 5 2 2 3 4 2 4 3 6 2 2 4 3 3 3
14 14 14 15 14 14 14 13 13 13 13 13 12 13 13 12 11 9 6 6 7 5 6 5 5 4 6 6 6 5 5 4 4 5 4 5 5 6 5 5 4 5 5 3 4 3 2 2 1 2 2 3 3 4 3 2 4 4 2 3 1 3 3 4 5 2 5 1 1 3 2 2 2 2 0 1 3 5 3 4 1 2 5 5 3
14 15 14 14 14 14 14 13 13 13 13 14 13 13 13 11 11 8 6 6 7 8 6 4 4 5 5 5 5 5 6 5 5 5 5 2 4 6 5 4 4 3 4 3 3 4 3 2 2 1 1 1 3 2 2 1 2 5 2 2 2 1 2 3 4 6 3 1 3 5 2 2 3 2 3 2 1 1 5 4 5 9 4 5 2
15 14 15 15 14 14 13 13 13 14 13 13 13 13 13 13 11 10 9 7 7 7 7 4 2 4 4 3 4 3 5 5 3 4 4 4 5 5 4 5 4 2 3 4 2 4 3 3 2 2 3 2 2 1 3 2 2 2 3 4 6 5 1 2 3 4 5 3 4 3 4 3 1 2 3 2 1 1 2 4 4 4 7 5 7
15 15 15 15 13 13 13 13 13 12 13 12 16 13 13 12 11 11 10 8 8 7 7 7 6 4 3 3 4 1 3 6 4 4 3 2 4 4 4 4 5 4 3 3 3 3 4 3 3 3 4 4 3 1 1 5 3 2 3 2 4 3 3 3 2 2 2 5 0 1 2 2 2 3 2 2 3 1 3 0 2 4 3 3 4
12 12 13 15 14 15 14 14 13 13 12 13 14 14 13 12 13 11 10 8 9 9 8 9 9 6 5 6 7 5 4 6 6 5 3 4 4 5 4 4 4 4 4 4 4 5 4 3 4 5 3 4 3 0 2 2 3 3 2 2 2 2 3 4 2 2 2 2 3 2 2 4 1 1 2 1 2 2 1 3 2 2 1 1 2
15 14 14 15 13 13 14 13 14 13 14 13 13 15 14 12 12 11 10 10 9 9 8 6 6 7 4 6 7 6 5 5 6 6 5 4 4 5 3 3 3 5 3 5 5 6 4 4 4 4 3 2 5 3 1 1 1 3 2 1 1 2 2 1 2 5 3 3 5 2 5 3 3 3 4 2 2 2 3 4 3 0 2 1 2
14 13 11 14 13 13 14 12 10 11 11 12 15 14 14 13 14 13 11 11 10 9 9 7 3 5 5 5 4 5 5 6 4 4 6 5 4 5 4 3 4 4 4 5 6 7 5 4 3 2 3 4 3 5 2 1 3 1 1 3 1 2 2 2 2 4 2 4 5 1 4 2 1 4 8 2 3 3 4 1 2 5 2 2 3
13 14 13 13 12 13 11 10 10 10 12 13 12 12 12 12 12 13 11 11 10 9 9 8 5 6 5 6 4 3 4 6 6 6 6 5 3 4 6 6 4 5 6 5 5 6 6 5 4 3 3 3 2 3 4 3 3 1 1 1 1 2 2 2 2 4 3 4 4 2 3 3 2 5 6 4 1 5 2 3 0 3 3 4 3
10 14 15 15 14 13 13 11 12 11 15 14 12 10 11 12 12 12 11 11 10 9 9 10 8 7 7 7 6 4 5 5 5 4 6 6 6 5 5 5 6 5 4 3 3 4 5 5 5 4 3 2 3 2 3 3 3 4 2 2 1 2 3 2 2 3 3 2 2 3 4 3 3 3 3 4 3 5 3 1 3 2 3 4 4
10 12 13 14 13 12 12 13 13 12 11 13 15 13 12 12 12 12 12 12 11 11 9 9 7 8 7 7 8 6 4 4 3 4 3 4 6 5 4 3 3 4 3 3 4 4 4 4 5 4 4 4 3 3 3 3 3 3 2 2 4 3 1 2 2 3 4 3 3 1 2 4 4 3 2 1 1 2 2 2 1 2 2 2 3
12 13 12 13 14 12 12 13 13 14 13 10 12 13 12 13 14 13 12 12 12 10 11 9 7 7 8 7 7 7 7 6 6 7 6 5 3 4 5 4 3 4 4 5 5 4 3 4 4 5 4 4 4 3 3 2 3 2 3 2 3 1 3 3 3 3 3 5 3 2 3 2 2 2 2 3 5 1 1 2 2 1 4 1 2
12 11 10 13 11 12 11 13 14 15 15 12 11 12 12 13 14 14 13 13 13 12 12 10 9 8 7 8 7 7 8 8 7 7 5 4 4 4 5 4 5 6 6 6 5 6 4 5 4 3 5 4 4 5 4 3 3 3 2 1 3 3 2 3 3 3 3 3 3 4 1 2 1 2 4 2 5 3 2 2 2 3 4 2 1
12 13 12 14 13 13 11 12 12 11 12 10 14 13 14 13 14 14 15 14 14 12 11 9 10 9 8 9 9 7 6 6 4 5 4 5 7 6 6 6 6 5 4 3 5 6 5 4 3 4 4 4 4 4 4 3 3 3 4 4 3 3 3 3 2 3 4 3 2 3 2 2 4 4 3 4 3 2 3 4 2 2 2 1 2
13 13 14 12 14 16 14 15 13 12 13 13 15 12 14 14 14 13 13 13 13 12 10 10 11 9 9 8 8 6 5 4 5 5 7 7 7 7 6 6 7 6 6 6 5 6 7 7 7 6 6 6 6 5 5 4 3 4 4 4 3 4 3 3 4 3 4 1 3 3 2 2 3 2 3 3 3 2 1 2 0 3 3 2 2
14 15 15 15 15 16 15 12 13 12 12 14 14 13 14 13 14 14 14 14 14 12 11 9 9 7 8 9 10 9 9 7 9 7 6 7 7 7 7 7 4 6 6 7 6 5 6 6 7 6 7 5 4 5 4 4 4 4 4 2 2 3 3 3 3 4 4 2 3 3 2 2 2 3 3 4 4 2 3 5 3 3 4 1 2
15 15 16 16 14 16 15 12 12 12 11 15 14 14 13 11 11 10 11 10 10 12 10 8 7 8 9 10 10 10 9 9 9 8 9 8 8 6 7 5 8 5 5 9 7 8 6 6 7 6 4 6 6 4 7 4 5 4 5 6 5 4 5 4 3 3 3 4 2 3 3 4 3 3 4 4 3 5 2 2 4 2 3 4 2
16 16 16 16 14 15 14 13 12 11 10 9 7 9 9 8 10 9 12 9 9 8 11 8 7 7 9 9 9 9 9 9 10 9 10 9 7 8 7 8 8 9 6 5 7 8 6 6 6 3 5 3 2 5 4 3 4 5 5 6 5 5 5 4 4 4 4 3 4 3 4 4 6 1 2 4 4 5 6 3 2 2 2 1 0
2 12 12 10 15 14 13 14 12 10 9 10 7 6 8 7 8 8 11 9 11 9 9 8 8 8 10 10 9 8 10 10 10 9 10 9 8 7 7 9 10 7 9 7 7 6 6 5 4 3 5 5 5 5 5 6 6 5 5 4 2 3 2 4 4 4 4 4 4 3 4 4 2 2 4 4 4 4 3 2 2 2 2 2 3
6 2 3 10 16 14 10 12 9 9 9 6 9 5 8 7 7 7 8 9 11 9 10 11 10 9 8 8 11 10 10 10 10 9 10 10 9 8 5 7 6 7 4 7 4 5 5 5 7 7 6 6 7 6 5 6 5 5 5 5 4 4 5 4 4 3 4 2 3 3 3 2 2 3 2 2 2 4 2 1 3 2 2 1 1
6 3 3 5 5 2 6 8 6 3 8 5 7 6 4 6 9 7 7 9 7 6 6 9 8 8 6 6 6 9 10 10 10 10 10 10 9 7 8 7 7 5 6 8 6 6 5 5 6 5 5 5 5 5 5 5 6 6 5 5 4 5 5 4 4 5 4 4 4 4 4 4 4 3 3 3 2 2 2 3 3 4 2 2 3
3 2 2 3 5 4 6 10 9 4 7 7 8 7 6 4 8 8 6 8 7 7 5 9 9 8 7 6 7 9 8 9 9 9 9 8 8 10 9 7 7 7 8 7 8 6 5 7 6 6 7 6 6 6 4 4 4 3 4 5 6 4 4 4 5 6 6 6 6 6 6 5 4 4 4 3 3 3 4 3 2 1 2 3 4
6 5 4 7 10 9 9 10 8 2 6 6 8 10 9 8 7 7 8 7 6 7 6 8 8 7 8 8 7 6 6 5 5 5 6 7 9 8 7 9 7 5 6 9 10 6 4 7 5 6 5 4 3 4 5 4 4 4 5 5 4 5 5 5 5 4 5 5 5 6 7 6 7 6 6 4 3 4 2 2 2 3 3 3 3
8 5 3 5 6 9 12 13 9 6 5 6 11 10 9 4 4 9 8 7 6 6 6 6 8 7 6 7 6 5 4 4 3 4 6 5 3 6 5 5 7 7 9 9 8 11 10 5 4 2 4 4 5 5 5 4 2 3 3 5 4 6 6 4 4 6 5 4 5 6 6 7 4 7 11 9 6 4 3 1 1 2 2 2 3
11 7 3 3 5 7 8 12 14 12 7 5 7 9 7 11 12 9 8 7 7 7 6 6 7 6 6 7 6 4 4 3 3 3 1 3 3 3 4 6 5 6 5 4 5 4 6 8 7 6 6 7 6 6 8 9 9 5 5 5 5 2 2 3 4 3 6 6 8 7 7 9 4 11 11 10 8 7 5 4 2 2 2 3 3
12 12 8 2 2 4 6 8 9 8 5 6 10 8 5 8 6 7 7 6 5 5 4 5 5 3 4 6 5 4 4 3 2 2 2 3 2 2 4 2 1 3 4 2 2 4 6 6 9 10 9 7 6 3 5 16 15 13 7 5 4 3 3 3 2 3 3 5 6 7 7 5 3 4 4 6 5 7 7 5 4 5 4 4 4
11 13 12 12 8 5 5 6 7 9 10 7 5 4 9 2 6 6 5 6 5 3 5 3 1 2 4 3 1 4 4 3 4 4 3 3 3 3 3 3 2 4 2 3 4 4 4 5 5 5 9 3 7 10 13 13 6 4 3 1 4 3 3 3 4 5 4 5 5 6 7 8 4 3 3 5 7 8 7 7 7 7 7 7 6
4 7 11 11 9 7 6 5 5 4 4 4 8 11 4 5 5 5 6 5 6 4 2 3 3 3 5 3 4 5 4 4 4 3 3 3 3 3 3 3 4 3 3 2 3 4 4 3 4 6 9 11 7 12 12 12 11 11 10 7 3 3 4 5 5 5 4 4 5 5 6 7 8 10 10 10 5 5 8 9 9 8 8 8 9
7 8 6 7 6 5 5 6 6 6 6 5 6 6 6 5 5 5 8 6 5 2 1 6 5 5 3 2 4 6 3 4 3 3 1 2 2 2 4 2 2 2 2 5 6 7 7 7 7 6 6 8 8 9 9 9 9 9 9 7 3 4 3 4 4 6 8 7 5 3 4 5 6 6 5 7 7 7 4 5 4 4 5 7 9
9 8 7 7 9 9 8 8 7 5 5 5 6 6 5 6 5 6 6 6 5 5 4 3 3 4 6 6 6 3 8 4 2 2 3 2 3 2 5 2 4 7 8 5 5 3 5 6 6 5 6 6 6 9 9 9 8 7 7 3 2 4 4 5 5 5 3 5 7 5 3 3 4 6 6 8 7 7 7 4 1 2 3 3 3
8 10 8 8 9 9 8 7 6 5 5 5 5 4 6 7 5 7 7 7 6 7 8 2 2 3 3 4 4 3 0 5 6 5 3 2 2 2 4 7 6 4 2 5 2 3 3 3 3 3 5 6 5 10 10 10 10 10 6 2 2 2 3 4 4 5 4 4 4 5 3 3 5 5 8 10 8 6 5 5 5 5 5 5 4
11 11 10 10 9 9 8 8 7 6 6 6 5 6 7 7 7 7 7 6 5 5 4 4 4 3 2 2 2 2 2 1 2 3 2 3 3 4 3 3 4 3 1 4 2 2 1 2 5 5 5 6 5 8 10 10 10 12 8 2 2 2 3 4 4 5 4 4 5 5 5 4 5 5 6 8 10 10 4 5 5 6 6 6 4
11 10 10 9 9 9 9 9 9 10 8 6 6 7 8 8 7 6 7 7 6 5 4 5 5 5 5 4 3 3 6 4 2 3 2 1 2 4 4 4 4 3 4 5 5 5 5 5 6 6 6 5 4 6 9 9 9 11 8 4 3 3 3 3 3 2 2 3 5 10 9 6 5 4 7 8 10 8 5 6 6 7 6 6 3
10 11 12 12 11 12 11 11 11 11 10 9 9 9 9 8 7 7 7 8 7 5 4 4 5 6 6 6 6 7 6 4 1 3 2 3 4 3 2 3 4 4 3 3 4 4 3 4 5 7 9 6 5 5 8 8 9 9 7 4 4 3 2 2 2 1 2 2 1 7 9 7 5 3 3 4 6 6 4 4 5 6 6 6 3
13 13 12 13 12 12 12 12 12 11 10 10 10 10 10 8 8 8 10 9 8 6 5 5 5 6 7 8 6 6 6 5 5 5 4 5 4 4 4 5 6 6 5 5 4 4 5 4 4 5 5 4 4 4 6 7 7 9 9 4 4 3 2 2 1 1 2 0 0 4 5 6 5 4 4 4 3 4 2 3 4 4 5 6 5
13 12 11 11 12 12 13 13 10 10 9 9 9 9 9 8 8 10 10 8 6 6 6 6 7 8 8 8 8 7 7 6 4 3 2 0 3 5 3 3 4 6 7 6 6 6 5 4 4 5 4 4 4 4 5 8 8 9 9 7 4 5 5 4 2 1 2 0 1 4 4 5 5 5 4 6 4 2 2 3 3 4 4 5 5
13 13 12 12 11 12 12 12 10 11 10 9 8 8 8 7 8 9 9 7 6 7 7 7 7 8 8 7 7 6 7 5 3 2 3 4 4 2 3 5 4 6 4 6 8 6 6 5 3 5 4 5 5 6 4 4 5 6 7 8 5 4 3 3 4 2 3 2 1 5 4 2 3 6 7 7 8 7 4 2 3 2 7 6 5
12 11 11 10 8 8 11 12 11 11 9 9 9 9 7 7 8 8 6 6 6 6 6 5 5 6 6 7 8 8 6 4 5 4 4 4 4 6 4 4 6 5 4 2 4 7 7 7 6 4 4 5 4 4 3 2 1 5 5 6 5 4 9 6 5 1 3 5 5 4 3 3 5 5 6 8 8 9 6 4 6 7 7 6 4
11 11 11 12 10 10 10 11 10 9 9 8 8 7 6 6 7 5 5 4 3 4 5 5 4 4 5 6 6 6 5 5 5 6 5 6 5 3 3 2 2 4 6 6 3 3 4 6 6 6 7 6 5 4 3 4 4 5 5 7 8 9 8 8 5 7 7 6 5 4 4 6 7 7 7 6 7 8 7 9 11 11 8 6 5
12 12 11 10 10 11 10 11 9 9 8 7 6 7 7 7 4 4 4 4 4 4 4 3 2 2 2 4 5 4 4 3 4 3 3 3 5 4 4 4 5 5 4 3 2 4 5 4 1 7 8 7 5 5 4 3 3 2 4 8 9 9 10 12 8 8 7 6 4 6 8 8 7 9 10 9 7 8 12 12 12 12 9 4 6
10 10 10 11 11 11 11 10 10 10 9 7 6 5 6 5 3 2 3 3 3 2 2 2 4 5 3 3 2 4 3 5 5 3 4 3 6 5 3 0 3 4 4 4 4 2 1 2 3 4 5 7 7 5 6 4 3 4 3 3 7 9 13 14 8 9 11 9 7 9 10 10 10 9 6 4 4 4 7 12 12 10 5 6 2
8 9 9 9 9 9 10 10 10 9 8 8 8 7 5 4 3 4 4 4 4 3 2 2 1 2 3 5 6 2 2 3 4 4 4 2 3 3 3 4 5 3 1 1 2 2 2 3 2 2 4 4 6 8 7 6 5 5 6 6 6 8 11 11 7 7 9 7 8 8 7 10 9 12 12 11 10 11 8 6 6 4 2 4 3
9 10 11 10 9 9 10 9 8 7 7 7 6 6 5 4 5 6 5 3 3 2 2 1 2 2 3 4 4 6 5 2 7 8 8 8 8 7 8 8 6 6 6 6 8 9 8 9 7 2 3 7 8 6 7 6 6 6 5 6 6 6 7 6 6 7 7 8 7 8 9 8 7 8 8 7 6 5 4 4 2 2 3 3 3
6 8 9 8 8 9 8 8 8 6 6 5 6 6 6 6 5 5 3 4 3 2 0 1 0 1 3 1 2 3 4 2 9 9 8 6 5 7 8 7 6 5 5 6 6 7 7 7 7 7 7 7 6 6 4 4 4 5 5 4 5 5 5 5 5 8 7 7 6 6 6 6 5 4 3 5 3 2 2 1 5 4 4 3 4
7 9 11 10 10 9 9 8 7 5 5 5 5 4 4 6 5 4 4 3 2 0 1 2 2 2 2 1 2 1 5 8 4 7 7 7 9 10 8 6 5 5 10 10 9 6 3 4 7 6 6 5 5 3 4 3 3 3 5 6 2 3 4 5 10 15 6 5 6 6 6 4 3 4 4 4 4 5 5 5 4 5 4 5 5
5 7 9 9 9 8 8 8 7 6 6 5 5 5 4 5 4 4 4 4 2 1 2 2 2 3 3 3 2 4 3 3 4 5 5 6 5 7 12 11 8 8 9 11 10 7 8 9 7 6 7 12 10 7 4 3 4 5 7 7 8 8 6 5 8 9 7 6 6 6 4 4 3 3 3 5 5 5 5 5 5 5 5 6 5
Wind_Direction
158 164 158 149 153 145 145 143 134 116 137 142 144 134 147 139 141 140 136 136 146 150 159 157 150 161 145 153 157 152 158 132 144 152 151 144 145 143 150 148 164 160 158 167 218 88 100 109 112 97 107 106 86 358 225 248 91 348 321 255 279 298 274 221 359 8 79 359 7 122 116 111 153 274 266 236 188 188 161 206 164 135 105 92 109
164 158 159 153 155 148 148 148 133 135 156 139 139 137 145 143 145 143 138 149 153 155 157 150 159 150 162 160 160 152 141 128 150 146 170 134 127 133 157 150 152 156 162 151 147 84 175 106 112 63 66 95 145 198 188 72 54 293 301 316 259 273 290 18 35 24 325 178 197 142 137 199 112 225 221 210 198 153 176 199 142 156 135 149 152
167 159 160 159 154 153 148 153 141 147 157 141 132 145 143 141 138 138 150 152 155 152 160 150 172 157 141 146 146 155 134 124 153 146 161 137 147 157 141 140 160 154 146 142 146 159 123 129 126 129 110 118 43 22 218 125 152 260 318 325 312 313 270 133 170 154 257 149 138 104 122 144 324 294 266 252 209 155 181 176 163 136 160 158 155
169 164 163 167 153 156 153 151 144 153 154 145 148 144 142 133 135 152 144 158 148 153 168 134 99 58 76 44 148 152 126 123 121 144 149 152 145 144 137 154 169 160 165 163 135 127 124 100 118 112 74 93 95 352 319 198 101 63 308 334 310 332 311 166 214 41 7 67 41 300 237 99 338 310 269 351 355 114 244 115 17 91 57 40 42
166 170 166 167 158 158 160 151 154 155 150 148 151 151 148 146 146 154 150 157 155 155 167 130 135 115 107 112 59 55 93 112 126 141 161 153 144 163 157 167 183 162 162 167 120 132 101 104 236 129 134 126 11 48 15 322 166 156 93 329 327 338 331 329 1 129 58 92 149 53 21 49 302 302 61 344 359 334 55 95 85 113 97 125 230
170 168 170 163 163 156 161 157 157 157 154 156 156 156 147 148 147 149 142 156 157 150 142 142 137 147 148 143 140 146 153 155 163 150 169 170 167 162 153 167 171 164 161 154 143 141 142 148 166 137 125 112 61 40 313 243 28 221 121 339 312 326 339 314 154 113 144 181 185 167 163 140 213 312 20 321 313 336 347 44 203 120 166 180 184
173 167 172 164 168 161 162 168 158 164 157 153 153 147 150 150 149 147 164 148 129 137 160 147 146 160 156 160 155 158 152 164 156 160 157 182 155 146 145 167 172 166 165 149 159 125 132 148 150 165 149 122 155 203 225 23 51 346 10 49 294 308 342 2 334 53 9 247 258 105 126 164 147 74 98 346 2 329 353 318 354 168 171 201 145
174 169 171 168 167 167 165 172 161 165 159 157 148 152 148 150 150 153 138 139 150 166 149 151 146 163 187 174 160 163 163 154 153 142 151 254 134 149 157 154 166 189 145 143 146 134 143 161 146 55 286 155 121 54 38 3 180 194 210 152 228 288 338 343 349 355 327 310 23 359 55 40 99 148 152 132 183 8 326 341 3 355 20 58 352
176 171 171 169 172 166 169 169 166 165 159 154 146 148 150 151 152 145 145 153 142 163 140 145 161 180 175 172 161 174 148 132 131 141 126 168 136 145 156 149 160 168 149 152 161 143 163 157 162 220 112 301 91 73 95 283 297 30 83 32 4 315 263 327 3 359 338 30 20 351 351 317 283 184 120 119 155 103 310 26 337 336 11 17 4
175 175 171 168 170 170 168 171 168 165 158 158 143 149 151 152 153 150 147 149 154 169 150 144 198 155 159 202 127 22 170 139 130 104 137 146 135 145 149 146 168 172 158 158 164 154 180 153 184 191 147 208 136 177 63 205 190 192 122 160 181 278 352 319 276 35 273 323 130 327 332 323 9 3 31 91 322 149 207 57 11 356 351 348 336
174 176 172 165 173 171 168 182 168 163 161 160 152 150 153 156 159 156 155 154 156 165 165 165 178 165 165 185 139 193 173 135 129 146 145 150 155 152 154 164 177 163 178 164 175 184 171 181 198 177 178 169 110 350 229 260 176 155 142 173 110 62 295 303 319 269 237 293 297 186 248 255 67 109 346 335 169 248 63 126 199 211 296 26 305
176 174 178 166 176 169 169 178 169 165 162 161 158 152 156 158 160 154 155 154 158 161 165 165 184 151 179 172 157 163 157 147 151 163 150 144 173 150 141 175 196 164 200 168 186 192 160 188 221 171 145 109 151 182 212 12 34 43 20 295 220 154 270 323 314 298 275 188 263 196 239 251 147 245 163 166 344 352 44 349 347 40 339 139 258
180 169 174 169 173 171 175 173 171 161 157 166 161 156 156 160 159 160 160 159 160 169 161 168 174 144 172 154 161 155 156 133 164 144 149 162 165 146 147 208 186 147 214 180 192 198 144 192 219 145 151 179 180 126 169 156 86 97 213 263 182 215 220 214 196 270 310 350 319 295 283 328 96 348 347 273 111 13 108 43 317 332 325 229 240
184 171 171 177 166 176 167 166 162 159 165 163 160 155 158 161 159 164 160 161 165 168 159 145 185 180 158 150 158 172 162 155 154 160 166 169 154 173 176 182 177 185 194 191 191 190 152 183 204 171 165 174 177 168 167 182 135 177 269 298 120 334 282 244 255 267 257 227 232 327 312 310 290 98 232 327 227 169 161 165 85 319 328 324 306
189 169 176 177 170 172 167 165 161 166 177 164 166 147 160 159 160 161 161 165 167 162 163 164 177 169 159 161 159 192 165 171 160 175 153 176 165 180 210 167 182 193 181 183 216 162 163 164 189 181 168 174 169 186 204 170 168 167 192 114 285 226 263 294 279 277 279 336 323 254 247 282 354 264 85 245 296 30 350 358 108 39 332 337 322
184 171 178 173 169 165 174 161 165 170 180 167 157 154 164 159 162 163 166 166 167 166 168 171 177 157 179 160 181 167 165 169 108 131 148 186 168 195 169 162 182 168 177 184 197 167 164 166 178 191 171 181 176 200 214 182 170 198 169 193 214 227 189 262 251 281 300 277 274 10 14 280 299 342 10 241 259 108 317 13 4 156 93 336 345
185 171 186 163 171 173 177 161 170 171 179 171 150 159 159 161 167 164 169 169 169 175 167 177 175 167 171 180 171 176 179 168 175 173 180 190 186 186 154 194 176 152 189 184 182 177 169 183 186 187 180 182 186 200 216 187 170 197 177 231 266 314 51 318 296 291 258 278 269 227 171 300 285 5 319 308 70 55 359 0 335 340 120 173 281
183 168 172 164 174 175 175 168 172 169 178 167 151 164 154 166 168 167 171 171 172 175 174 174 176 179 176 179 179 179 182 185 171 180 184 188 180 163 189 162 181 186 194 183 170 181 172 196 192 176 182 196 192 190 207 179 173 226 153 225 239 99 214 258 275 294 297 293 271 291 333 285 282 235 242 287 134 188 198 201 202 82 153 167 188
179 176 179 173 175 180 174 169 167 167 172 163 161 173 163 167 171 172 173 175 172 178 173 174 179 179 182 184 180 188 188 189 163 172 175 196 194 171 208 160 190 205 148 213 169 180 181 191 191 189 184 198 195 201 186 190 190 224 187 202 212 188 220 239 263 246 262 260 307 292 274 312 339 337 328 300 31 10 135 252 113 312 101 144 199
183 183 181 178 177 183 177 175 166 172 174 171 174 174 167 169 169 172 173 176 176 178 170 177 180 189 176 178 186 169 191 161 173 196 182 203 194 194 179 198 194 181 171 190 180 188 181 188 194 191 197 195 191 208 193 190 204 217 229 214 222 198 204 227 237 250 255 80 339 317 316 306 285 307 320 322 266 236 12 38 279 159 215 188 115
183 184 182 182 180 182 181 174 169 175 180 173 181 175 175 169 172 173 170 181 179 179 168 185 179 192 173 178 182 190 175 187 188 193 198 211 188 192 184 188 195 189 180 183 182 211 173 198 192 195 195 191 187 197 196 174 205 204 247 227 226 187 222 226 219 252 264 250 200 216 250 273 289 288 282 282 287 247 206 185 176 54 5 102 139
180 184 184 184 179 182 180 175 175 172 183 183 179 178 174 171 161 173 165 179 179 179 168 183 180 184 185 186 187 186 187 187 194 193 213 205 199 176 177 167 194 200 197 192 187 195 183 204 204 190 202 182 189 192 197 190 191 203 218 220 198 194 216 234 245 240 220 246 236 208 229 250 241 222 243 269 271 293 296 351 96 119 183 262 196
186 188 186 182 179 185 179 180 181 175 179 177 179 171 174 167 160 167 164 174 168 179 168 178 176 181 184 190 195 185 197 194 192 198 212 202 199 199 177 179 201 187 201 209 197 194 183 189 214 180 161 180 212 191 214 191 214 198 212 236 224 189 205 226 229 227 251 232 241 237 237 232 242 211 2 318 340 355 303 273 285 198 200 265 193
275 189 187 178 182 189 175 177 177 171 176 170 168 167 155 162 164 169 164 168 161 184 160 163 175 189 193 186 200 196 195 203 202 196 204 205 193 204 191 201 205 196 185 202 204 202 174 196 175 195 181 180 206 213 204 199 202 218 208 231 245 286 268 254 245 236 229 233 244 243 257 264 288 191 190 191 236 230 249 325 271 250 181 221 242
319 50 95 175 183 191 171 173 164 170 177 163 151 135 154 168 168 175 160 172 171 182 170 170 179 193 193 190 195 203 200 200 210 206 198 206 213 197 195 221 211 216 187 195 195 220 170 187 202 190 195 187 195 211 211 224 208 203 213 228 229 215 219 226 240 249 256 264 265 272 274 280 256 251 236 248 257 258 260 177 257 322 336 271 275
299 341 108 67 25 31 127 79 55 164 159 149 151 148 138 162 163 177 159 171 179 172 170 158 175 188 187 201 200 202 205 204 207 215 213 209 192 185 198 212 222 212 183 218 203 194 189 195 208 196 201 203 206 211 206 222 227 210 209 213 231 228 220 223 232 228 230 244 252 238 243 241 257 273 280 249 245 351 354 295 290 270 256 350 328
346 329 67 93 142 210 129 131 143 235 180 170 155 158 163 172 168 177 176 168 175 166 175 158 175 183 179 199 209 204 214 207 205 217 217 204 209 202 180 198 211 210 206 195 215 202 178 192 207 218 204 201 206 213 209 222 245 222 211 236 228 236 234 234 241 236 240 230 224 229 216 222 233 233 256 258 258 231 234 245 240 251 238 233 241
112 61 126 159 170 164 160 136 129 177 233 174 161 171 166 184 168 195 179 177 172 168 175 160 176 183 174 191 202 214 218 219 199 211 250 221 201 213 198 178 196 212 234 219 187 217 226 185 203 224 223 210 224 222 221 204 226 248 231 215 224 237 249 240 238 249 253 259 256 244 240 216 208 209 210 231 255 274 309 329 343 350 359 12 2
133 91 40 113 146 138 150 129 134 202 232 197 191 166 163 149 148 192 176 175 168 168 179 165 175 189 174 181 195 215 237 218 209 197 224 268 248 203 202 181 174 208 212 222 219 163 210 193 213 238 239 209 206 231 242 216 228 243 274 256 234 225 227 250 256 265 264 250 252 272 285 261 230 203 203 200 203 139 146 175 264 322 340 347 318
134 129 114 71 102 121 124 121 148 176 193 218 210 156 193 169 185 185 163 164 161 173 180 175 176 192 176 176 183 207 219 223 215 222 232 237 261 290 225 193 195 207 226 233 220 221 208 187 184 219 227 227 213 206 217 216 209 222 231 247 259 268 253 253 262 251 261 273 278 273 273 291 304 277 270 207 189 169 184 221 187 179 224 258 262
146 141 125 71 5 104 112 118 128 125 74 23 354 321 204 182 162 170 162 154 130 168 163 175 173 194 187 172 179 199 205 215 194 191 220 278 304 302 323 329 248 197 224 248 263 235 227 226 198 200 212 213 223 349 311 200 196 198 208 209 228 251 281 289 283 290 302 299 301 313 308 305 191 215 132 163 193 207 204 211 219 224 219 222 257
166 156 151 159 175 158 136 122 121 135 145 155 167 260 263 198 168 160 164 149 129 130 159 162 5 37 24 344 299 203 205 198 200 193 200 214 243 264 299 305 282 247 182 247 247 253 279 283 257 221 219 228 65 14 25 19 28 34 27 261 240 256 255 252 231 232 241 257 269 271 271 278 278 135 204 208 209 208 207 215 226 232 234 232 230
164 167 161 166 163 160 153 144 131 128 107 104 153 191 172 206 209 178 160 136 98 114 277 182 210 90 271 272 244 239 200 201 196 202 199 208 225 228 239 257 251 274 304 280 257 250 245 273 302 4 28 57 49 18 14 31 22 21 11 349 261 251 279 291 303 310 286 243 236 252 274 287 289 7 20 8 322 241 217 216 223 235 247 246 243
80 48 33 77 92 108 72 67 87 91 87 69 71 78 75 43 72 91 89 80 116 126 159 126 151 173 173 203 320 282 234 205 183 157 171 195 190 221 233 213 293 294 323 7 345 4 26 38 50 62 74 60 58 12 15 24 31 20 18 357 332 302 282 277 298 299 298 302 310 346 14 27 36 43 23 11 354 332 264 215 227 234 245 253 242
116 119 123 116 111 105 91 78 79 92 113 111 91 96 75 68 73 84 102 114 110 104 65 27 98 148 185 192 184 197 255 259 251 200 221 218 282 282 254 335 1 7 345 332 308 360 32 44 55 62 74 76 51 19 14 18 21 24 359 340 323 306 310 304 299 301 301 17 29 35 40 42 45 49 23 8 3 341 336 325 274 268 262 270 288
96 104 100 91 98 92 87 82 77 84 81 74 90 93 83 96 92 94 99 108 115 119 119 165 157 203 198 196 175 181 336 300 297 282 256 266 282 295 17 28 25 21 243 249 14 15 50 48 72 99 97 89 56 27 19 12 9 358 332 289 285 284 292 290 274 280 1 47 28 30 26 51 67 58 17 2 353 332 339 343 343 337 322 319 328
76 76 79 85 89 91 91 89 84 84 83 86 96 100 98 91 96 102 103 103 101 93 92 102 128 156 163 151 152 119 134 255 255 325 344 12 9 5 46 100 147 204 251 110 132 101 83 84 71 81 82 78 62 24 23 19 14 2 340 352 317 305 284 304 331 23 21 29 43 33 44 53 72 57 20 5 354 344 342 342 332 326 325 317 335
88 92 94 94 95 97 97 98 86 66 48 46 72 85 86 76 73 70 86 93 89 68 51 73 68 62 58 54 72 106 102 96 227 220 273 343 36 73 70 99 100 71 55 70 84 62 52 60 71 93 95 92 78 38 29 24 21 11 348 345 341 323 338 339 312 11 43 57 44 51 41 38 42 37 10 5 356 348 351 346 336 332 326 314 336
96 99 98 97 96 95 94 87 83 77 74 68 61 65 67 73 70 56 63 71 61 59 36 49 64 70 70 59 71 89 106 142 105 31 353 82 89 105 189 127 129 131 102 75 86 103 96 66 73 78 88 86 80 58 34 22 24 22 12 338 339 328 314 297 294 302 315 55 85 72 66 58 48 33 24 10 0 351 342 341 333 318 307 306 357
101 99 106 109 109 102 94 88 80 76 72 68 69 64 60 56 58 59 57 48 41 33 23 24 37 49 58 55 59 93 109 115 84 85 95 113 120 114 148 139 147 150 142 133 122 120 117 89 72 73 68 67 72 55 34 21 23 22 18 344 289 307 318 317 308 60 332 193 38 108 65 52 40 28 358 9 15 12 334 331 321 296 297 299 345
108 112 119 115 106 100 98 99 98 93 80 72 64 64 55 53 47 55 54 42 35 31 25 32 43 49 53 57 60 54 66 83 89 73 23 183 153 130 112 104 141 136 139 135 140 125 118 104 88 88 81 64 67 67 44 16 20 23 21 9 342 31 12 349 43 42 308 25 91 82 80 48 25 16 2 347 7 344 301 303 304 313 322 322 330
50 56 72 82 76 62 61 74 96 105 101 87 82 77 74 63 56 49 41 18 15 35 30 23 32 52 53 49 49 50 54 54 94 121 74 39 32 110 176 171 136 101 107 171 153 143 131 118 109 103 110 101 82 72 71 23 16 29 31 27 33 40 356 313 317 214 204 160 155 90 60 41 18 19 355 348 334 328 323 279 296 272 290 325 315
84 83 88 88 78 78 86 94 81 69 73 86 85 81 76 75 75 75 69 37 1 30 34 25 48 49 58 59 53 34 28 33 51 57 55 48 57 63 46 45 87 114 127 100 133 147 138 133 142 144 112 109 102 79 69 106 34 42 47 61 48 28 354 5 338 321 59 49 58 86 79 61 30 18 344 329 312 308 286 245 260 283 287 292 288
111 112 113 109 104 92 73 55 61 83 93 82 69 64 66 67 78 91 93 81 40 35 64 22 12 69 73 66 57 58 41 25 28 32 41 41 38 35 43 10 219 158 144 137 184 171 154 141 139 140 135 129 120 132 124 94 70 34 21 32 30 27 23 353 354 27 35 41 15 27 11 354 351 319 304 290 291 290 278 292 295 284 286 278 261
133 131 135 125 111 107 100 94 87 81 76 90 101 96 84 70 48 70 89 86 69 47 26 21 9 79 83 112 136 129 129 98 77 70 30 34 21 20 36 339 344 18 42 69 21 46 34 63 92 154 150 143 138 144 132 104 81 35 352 359 1 10 25 21 19 37 17 11 347 330 341 325 305 296 287 287 270 257 261 264 269 277 279 278 250
133 138 125 104 104 102 104 113 116 115 113 105 94 83 94 102 103 69 72 92 118 111 93 33 341 341 27 90 142 137 142 153 155 181 192 175 182 186 142 105 27 54 13 28 324 72 119 119 258 71 103 135 155 141 108 91 57 17 11 4 3 358 8 9 32 33 4 340 323 294 287 289 286 277 280 277 273 261 252 260 264 270 292 278 28
131 114 107 106 108 109 108 106 106 109 113 111 114 120 122 123 137 119 87 55 49 58 62 44 2 33 356 6 4 17 189 160 197 193 172 205 112 91 88 37 23 356 48 355 232 141 279 122 145 63 72 86 71 63 62 49 33 31 20 27 23 12 16 12 18 7 352 338 318 306 287 278 273 285 282 274 271 286 288 271 255 239 239 356 338
130 118 109 111 108 104 100 91 83 83 84 96 112 129 143 135 108 85 86 80 75 69 74 60 31 16 14 357 345 333 336 120 63 48 41 43 43 64 65 49 35 27 31 33 18 30 27 12 2 45 90 64 59 49 40 27 20 18 29 25 31 24 15 4 4 357 330 315 309 302 294 269 264 269 270 254 241 231 245 245 289 6 51 307 323
114 117 121 113 112 109 109 101 96 94 97 97 94 84 91 101 105 100 99 86 80 87 161 168 169 72 81 335 312 325 323 59 96 72 61 36 27 70 82 77 49 28 41 45 37 39 20 25 47 24 63 88 67 57 40 40 51 35 30 26 26 17 357 354 2 341 320 308 307 297 287 285 261 260 298 327 330 130 179 6 4 8 3 322 52
92 94 102 108 108 108 105 107 105 105 101 102 97 93 95 96 98 108 111 119 115 81 50 65 80 21 79 271 310 253 57 2 54 110 106 80 52 47 41 88 98 61 64 65 78 73 8 22 73 43 18 61 96 97 118 69 65 49 44 51 22 359 356 341 334 327 308 283 293 292 283 298 325 358 321 295 348 10 6 6 11 355 337 14 10
120 117 118 127 135 138 137 134 134 133 134 134 121 107 100 93 93 102 116 126 169 176 145 93 80 68 359 15 0 41 20 52 19 105 99 100 100 54 46 51 91 127 103 89 83 89 60 46 83 100 60 62 83 101 102 79 53 37 29 10 360 339 348 345 354 357 340 323 305 299 314 325 346 327 323 5 10 355 19 0 355 351 354 9 10